| time (UTC) | temp C | wind direction | speed KPH | gust KPH | rain 1hr cm | rain 24hr cm | rain mn cm | humidity % | barometer mb |
| 20260507052559 | 13 | 297 | 0.0 | 0.0 | 0.00 | 0.00 | 0.00 | 81 | |
| 20260507052049 | 13 | 297 | 0.0 | 0.0 | 0.00 | 0.00 | 0.00 | 81 | |
| 20260507051538 | 13 | 297 | 0.0 | 0.0 | 0.00 | 0.00 | 0.00 | 80 | |
| 20260507050422 | 14 | 297 | 0.0 | 0.0 | 0.00 | 0.00 | 0.00 | 80 | |
| 20260507045915 | 14 | 297 | 0.0 | 0.0 | 0.00 | 0.00 | 0.00 | 80 | |
| 20260507045409 | 14 | 297 | 0.0 | 0.0 | 0.00 | 0.00 | 0.00 | 80 | |
| 20260507044850 | 14 | 297 | 0.0 | 0.0 | 0.00 | 0.00 | 0.00 | 79 | |
| 20260507044344 | 15 | 297 | 0.0 | 0.0 | 0.00 | 0.00 | 0.00 | 78 | |
| 20260507043222 | 15 | 297 | 0.0 | 0.0 | 0.00 | 0.00 | 0.00 | 77 | |
| 20260507042714 | 15 | 297 | 0.0 | 0.0 | 0.00 | 0.00 | 0.00 | 77 | |
| 20260507042219 | 15 | 297 | 0.0 | 0.0 | 0.00 | 0.00 | 0.00 | 77 | |
| 20260507041723 | 15 | 297 | 0.0 | 0.0 | 0.00 | 0.00 | 0.00 | 77 | |
| 20260507041218 | 15 | 297 | 0.0 | 0.0 | 0.00 | 0.00 | 0.00 | 76 | |
| 20260507040716 | 16 | 297 | 0.0 | 0.0 | 0.00 | 0.00 | 0.00 | 75 | |
| 20260507040202 | 16 | 297 | 0.0 | 0.0 | 0.00 | 0.00 | 0.00 | 75 | |
| 20260507035056 | 16 | 297 | 0.0 | 0.0 | 0.00 | 0.00 | 0.00 | 74 | |
| 20260507034545 | 16 | 297 | 0.0 | 0.0 | 0.00 | 0.00 | 0.00 | 73 | |
| 20260507034025 | 17 | 297 | 0.0 | 0.0 | 0.00 | 0.00 | 0.00 | 73 | |
| 20260507032237 | 17 | 297 | 0.0 | 0.0 | 0.00 | 0.00 | 0.00 | 71 | |
| 20260507031745 | 17 | 297 | 0.0 | 0.0 | 0.00 | 0.00 | 0.00 | 71 | |
| 20260507031237 | 17 | 297 | 0.0 | 0.0 | 0.00 | 0.00 | 0.00 | 71 | |
| 20260507030721 | 17 | 297 | 0.0 | 0.0 | 0.00 | 0.00 | 0.00 | 70 | |
| 20260507030230 | 18 | 297 | 0.0 | 0.0 | 0.00 | 0.00 | 0.00 | 70 | |
| 20260507025739 | 18 | 297 | 0.0 | 0.0 | 0.00 | 0.00 | 0.00 | 70 | |
| 20260507025233 | 18 | 297 | 0.0 | 4.8 | 0.00 | 0.00 | 0.00 | 70 | |
| 20260507024741 | 18 | 297 | 0.0 | 4.8 | 0.00 | 0.00 | 0.00 | 69 | |
| 20260507024250 | 18 | 297 | 1.6 | 4.8 | 0.00 | 0.00 | 0.00 | 68 | |
| 20260507023733 | 18 | 297 | 0.0 | 4.8 | 0.00 | 0.00 | 0.00 | 67 | |
| 20260507023228 | 19 | 297 | 0.0 | 4.8 | 0.00 | 0.00 | 0.00 | 66 | |
| 20260507022715 | 19 | 297 | 1.6 | 4.8 | 0.00 | 0.00 | 0.00 | 66 | |
| 20260507022223 | 19 | 297 | 3.2 | 4.8 | 0.00 | 0.00 | 0.00 | 65 | |
| 20260507021709 | 19 | 297 | 1.6 | 4.8 | 0.00 | 0.00 | 0.00 | 65 | |
| 20260507021154 | 20 | 297 | 1.6 | 4.8 | 0.00 | 0.00 | 0.00 | 63 | |
| 20260507020654 | 20 | 297 | 1.6 | 4.8 | 0.00 | 0.00 | 0.00 | 63 | |
| 20260507015529 | 20 | 297 | 4.8 | 9.7 | 0.00 | 0.00 | 0.00 | 61 | |
| 20260507013738 | 22 | 297 | 4.8 | 8.0 | 0.00 | 0.00 | 0.00 | 57 | |
| 20260507013239 | 22 | 296 | 4.8 | 8.0 | 0.00 | 0.00 | 0.00 | 56 | |
| 20260507012720 | 22 | 300 | 3.2 | 8.0 | 0.00 | 0.00 | 0.00 | 55 | |
| 20260507012213 | 23 | 300 | 3.2 | 6.4 | 0.00 | 0.00 | 0.00 | 55 | |
| 20260507010449 | 23 | 301 | 3.2 | 8.0 | 0.00 | 0.00 | 0.00 | 53 | |
| 20260507005929 | 23 | 302 | 1.6 | 6.4 | 0.00 | 0.00 | 0.00 | 53 | |
| 20260507004805 | 24 | 302 | 0.0 | 8.0 | 0.00 | 0.00 | 0.00 | 52 | |
| 20260507004302 | 24 | 302 | 1.6 | 8.0 | 0.00 | 0.00 | 0.00 | 52 | |
| 20260507003759 | 24 | 302 | 1.6 | 8.0 | 0.00 | 0.00 | 0.00 | 53 | |
| 20260507002632 | 24 | 304 | 1.6 | 9.7 | 0.00 | 0.00 | 0.00 | 53 | |
| 20260507002138 | 24 | 304 | 1.6 | 9.7 | 0.00 | 0.00 | 0.00 | 53 | |
| 20260507001639 | 24 | 303 | 1.6 | 9.7 | 0.00 | 0.00 | 0.00 | 53 | |
| 20260507001130 | 25 | 297 | 1.6 | 9.7 | 0.00 | 0.00 | 0.00 | 53 | |
| 20260507000638 | 25 | 297 | 1.6 | 14.5 | 0.00 | 0.00 | 0.00 | 53 | |
| 20260507000146 | 25 | 315 | 3.2 | 14.5 | 0.00 | 0.00 | 0.00 | 52 | |
| 20260506235654 | 25 | 150 | 1.6 | 14.5 | 0.00 | 0.00 | 0.00 | 51 | |
| 20260506235138 | 25 | 314 | 0.0 | 0.0 | 0.00 | 0.00 | 0.00 | 52 | |
| 20260506234637 | 25 | 325 | 0.0 | 8.0 | 0.00 | 0.00 | 0.00 | 52 | |
| 20260506234120 | 25 | 0 | 0.0 | 6.4 | 0.00 | 0.00 | 0.00 | 52 | |
| 20260506233617 | 25 | 309 | 1.6 | 8.0 | 0.00 | 0.00 | 0.00 | 53 | |
| 20260506233124 | 25 | 301 | 1.6 | 8.0 | 0.00 | 0.00 | 0.00 | 52 | |
| 20260506231958 | 25 | 277 | 0.0 | 9.7 | 0.00 | 0.00 | 0.00 | 51 | |
| 20260506231454 | 25 | 5 | 1.6 | 9.7 | 0.00 | 0.00 | 0.00 | 52 | |
| 20260506230944 | 25 | 303 | 1.6 | 9.7 | 0.00 | 0.00 | 0.00 | 51 | |
| 20260506230430 | 25 | 309 | 0.0 | 4.8 | 0.00 | 0.00 | 0.00 | 52 | |
| 20260506225936 | 25 | 63 | 0.0 | 9.7 | 0.00 | 0.00 | 0.00 | 51 | |
| 20260506225417 | 25 | 327 | 0.0 | 9.7 | 0.00 | 0.00 | 0.00 | 52 | |
| 20260506224926 | 25 | 326 | 1.6 | 9.7 | 0.00 | 0.00 | 0.00 | 52 | |
| 20260506224422 | 25 | 295 | 1.6 | 9.7 | 0.00 | 0.00 | 0.00 | 51 | |
| 20260506223932 | 26 | 284 | 1.6 | 8.0 | 0.00 | 0.00 | 0.00 | 49 | |
| 20260506223422 | 26 | 341 | 0.0 | 8.0 | 0.00 | 0.00 | 0.00 | 50 | |
| 20260506222256 | 26 | 162 | 0.0 | 4.8 | 0.00 | 0.00 | 0.00 | 50 | |
| 20260506221800 | 26 | 106 | 0.0 | 4.8 | 0.00 | 0.00 | 0.00 | 49 | |
| 20260506221252 | 26 | 148 | 0.0 | 3.2 | 0.00 | 0.00 | 0.00 | 50 | |
| 20260506220735 | 26 | 134 | 0.0 | 6.4 | 0.00 | 0.00 | 0.00 | 49 | |
| 20260506220236 | 26 | 35 | 0.0 | 6.4 | 0.00 | 0.00 | 0.00 | 51 | |
| 20260506215726 | 26 | 148 | 0.0 | 6.4 | 0.00 | 0.00 | 0.00 | 49 | |
| 20260506215236 | 26 | 97 | 0.0 | 6.4 | 0.00 | 0.00 | 0.00 | 50 | |
| 20260506214741 | 26 | 295 | 0.0 | 8.0 | 0.00 | 0.00 | 0.00 | 51 | |
| 20260506214230 | 26 | 65 | 0.0 | 8.0 | 0.00 | 0.00 | 0.00 | 49 | |
| 20260506213100 | 26 | 159 | 0.0 | 8.0 | 0.00 | 0.00 | 0.00 | 49 | |
| 20260506212549 | 25 | 355 | 0.0 | 3.2 | 0.00 | 0.00 | 0.00 | 50 | |
| 20260506211407 | 25 | 244 | 0.0 | 6.4 | 0.00 | 0.00 | 0.00 | 50 | |
| 20260506210913 | 25 | 40 | 0.0 | 6.4 | 0.00 | 0.00 | 0.00 | 50 | |
| 20260506210405 | 25 | 157 | 0.0 | 6.4 | 0.00 | 0.00 | 0.00 | 49 | |
| 20260506204616 | 25 | 82 | 0.0 | 4.8 | 0.00 | 0.00 | 0.00 | 51 | |
| 20260506204119 | 25 | 67 | 0.0 | 4.8 | 0.00 | 0.00 | 0.00 | 52 | |
| 20260506203617 | 25 | 81 | 0.0 | 4.8 | 0.00 | 0.00 | 0.00 | 52 | |
| 20260506202434 | 25 | 93 | 0.0 | 4.8 | 0.00 | 0.00 | 0.00 | 50 | |
| 20260506201309 | 25 | 67 | 0.0 | 4.8 | 0.00 | 0.00 | 0.00 | 51 | |
| 20260506200818 | 25 | 42 | 0.0 | 4.8 | 0.00 | 0.00 | 0.00 | 50 | |
| 20260506200312 | 25 | 177 | 0.0 | 4.8 | 0.00 | 0.00 | 0.00 | 50 | |
| 20260506195807 | 25 | 144 | 0.0 | 4.8 | 0.00 | 0.00 | 0.00 | 51 | |
| 20260506195301 | 25 | 143 | 0.0 | 4.8 | 0.00 | 0.00 | 0.00 | 50 | |
| 20260506194747 | 25 | 159 | 0.0 | 4.8 | 0.00 | 0.00 | 0.00 | 50 | |
| 20260506194247 | 25 | 88 | 0.0 | 3.2 | 0.00 | 0.00 | 0.00 | 50 | |
| 20260506193738 | 25 | 161 | 0.0 | 8.0 | 0.00 | 0.00 | 0.00 | 51 | |
| 20260506193224 | 25 | 219 | 0.0 | 8.0 | 0.00 | 0.00 | 0.00 | 51 | |
| 20260506192715 | 25 | 70 | 0.0 | 8.0 | 0.00 | 0.00 | 0.00 | 51 | |
| 20260506192219 | 25 | 147 | 0.0 | 8.0 | 0.00 | 0.00 | 0.00 | 52 | |
| 20260506191119 | 25 | 176 | 0.0 | 3.2 | 0.00 | 0.00 | 0.00 | 51 | |
| 20260506190606 | 25 | 260 | 0.0 | 1.6 | 0.00 | 0.00 | 0.00 | 53 | |
| 20260506190050 | 24 | 101 | 0.0 | 3.2 | 0.00 | 0.00 | 0.00 | 53 | |
| 20260506185550 | 24 | 80 | 0.0 | 4.8 | 0.00 | 0.00 | 0.00 | 54 | |
| 20260506185053 | 24 | 315 | 0.0 | 4.8 | 0.00 | 0.00 | 0.00 | 54 | |
| 20260506184556 | 23 | 105 | 0.0 | 3.2 | 0.00 | 0.00 | 0.00 | 54 | |
| 20260506183428 | 23 | 59 | 0.0 | 8.0 | 0.00 | 0.00 | 0.00 | 55 | |
| 20260506182911 | 23 | 294 | 1.6 | 8.0 | 0.00 | 0.00 | 0.00 | 58 | |
| 20260506182415 | 22 | 292 | 3.2 | 8.0 | 0.00 | 0.00 | 0.00 | 56 | |
| 20260506181854 | 22 | 298 | 3.2 | 9.7 | 0.00 | 0.00 | 0.00 | 55 | |
| 20260506181339 | 22 | 299 | 0.0 | 9.7 | 0.00 | 0.00 | 0.00 | 55 | |
| 20260506180843 | 22 | 340 | 1.6 | 9.7 | 0.00 | 0.00 | 0.00 | 56 | |
| 20260506180337 | 22 | 290 | 1.6 | 9.7 | 0.00 | 0.00 | 0.00 | 56 | |
| 20260506174545 | 22 | 278 | 0.0 | 8.0 | 0.00 | 0.00 | 0.00 | 54 | |
| 20260506173418 | 21 | 321 | 0.0 | 6.4 | 0.00 | 0.00 | 0.00 | 56 | |
| 20260506172926 | 21 | 164 | 0.0 | 6.4 | 0.00 | 0.00 | 0.00 | 57 | |
| 20260506172411 | 21 | 337 | 1.6 | 6.4 | 0.00 | 0.00 | 0.00 | 58 | |
| 20260506171917 | 20 | 278 | 1.6 | 8.0 | 0.00 | 0.00 | 0.00 | 58 | |
| 20260506171425 | 20 | 269 | 0.0 | 8.0 | 0.00 | 0.00 | 0.00 | 60 | |
| 20260506170932 | 20 | 289 | 1.6 | 8.0 | 0.00 | 0.00 | 0.00 | 60 | |
| 20260506170412 | 20 | 290 | 0.0 | 8.0 | 0.00 | 0.00 | 0.00 | 61 | |
| 20260506165855 | 20 | 288 | 0.0 | 0.0 | 0.00 | 0.00 | 0.00 | 63 | |
| 20260506165345 | 19 | 303 | 1.6 | 8.0 | 0.00 | 0.00 | 0.00 | 65 | |
| 20260506164851 | 19 | 323 | 1.6 | 8.0 | 0.00 | 0.00 | 0.00 | 65 | |
| 20260506164400 | 18 | 286 | 1.6 | 6.4 | 0.00 | 0.00 | 0.00 | 68 | |
| 20260506163853 | 18 | 286 | 0.0 | 6.4 | 0.00 | 0.00 | 0.00 | 69 | |
| 20260506161500 | 15 | 286 | 0.0 | 3.2 | 0.00 | 0.00 | 0.00 | 88 | |
| 20260506160958 | 15 | 286 | 0.0 | 1.6 | 0.00 | 0.00 | 0.00 | 92 | |
| 20260506160456 | 14 | 286 | 0.0 | 0.0 | 0.00 | 0.00 | 0.00 | 94 | |
| 20260506155942 | 13 | 286 | 0.0 | 0.0 | 0.00 | 0.00 | 0.00 | 95 | |
| 20260506155451 | 13 | 286 | 0.0 | 0.0 | 0.00 | 0.00 | 0.00 | 95 | |
| 20260506155000 | 13 | 286 | 0.0 | 0.0 | 0.00 | 0.00 | 0.00 | 96 | |
| 20260506154503 | 12 | 286 | 0.0 | 0.0 | 0.00 | 0.00 | 0.00 | 96 | |
| 20260506153955 | 12 | 286 | 0.0 | 1.6 | 0.00 | 0.00 | 0.00 | 96 | |
| 20260506153502 | 11 | 286 | 0.0 | 0.0 | 0.00 | 0.00 | 0.00 | 96 | |
| 20260506153011 | 11 | 286 | 0.0 | 0.0 | 0.00 | 0.00 | 0.00 | 96 | |
| 20260506152503 | 10 | 286 | 0.0 | 0.0 | 0.00 | 0.00 | 0.00 | 95 | |
| 20260506151351 | 10 | 286 | 0.0 | 0.0 | 0.00 | 0.00 | 0.00 | 95 | |
| 20260506150850 | 9 | 286 | 0.0 | 0.0 | 0.00 | 0.00 | 0.00 | 95 | |
| 20260506150359 | 9 | 286 | 0.0 | 0.0 | 0.00 | 0.00 | 0.00 | 95 | |
| 20260506145212 | 8 | 286 | 0.0 | 0.0 | 0.00 | 0.00 | 0.00 | 94 | |
| 20260506144050 | 8 | 286 | 0.0 | 0.0 | 0.00 | 0.00 | 0.00 | 94 | |
| 20260506142302 | 7 | 286 | 0.0 | 0.0 | 0.00 | 0.00 | 0.00 | 94 | |
| 20260506141753 | 7 | 286 | 0.0 | 0.0 | 0.00 | 0.00 | 0.00 | 93 | |
| 20260506141300 | 7 | 286 | 0.0 | 0.0 | 0.00 | 0.00 | 0.00 | 93 | |
| 20260506140747 | 7 | 286 | 0.0 | 0.0 | 0.00 | 0.00 | 0.00 | 93 | |
| 20260506140243 | 7 | 286 | 0.0 | 0.0 | 0.00 | 0.00 | 0.00 | 93 | |
| 20260506135738 | 7 | 286 | 0.0 | 0.0 | 0.00 | 0.00 | 0.00 | 93 | |
| 20260506135248 | 7 | 286 | 0.0 | 1.6 | 0.00 | 0.00 | 0.00 | 93 | |
| 20260506134740 | 7 | 286 | 0.0 | 1.6 | 0.00 | 0.00 | 0.00 | 92 | |
| 20260506134236 | 7 | 286 | 0.0 | 0.0 | 0.00 | 0.00 | 0.00 | 92 | |
| 20260506133745 | 7 | 286 | 0.0 | 0.0 | 0.00 | 0.00 | 0.00 | 92 | |
| 20260506133244 | 7 | 286 | 0.0 | 0.0 | 0.00 | 0.00 | 0.00 | 92 | |
| 20260506132733 | 7 | 286 | 0.0 | 0.0 | 0.00 | 0.00 | 0.00 | 92 | |
| 20260506132218 | 7 | 286 | 0.0 | 0.0 | 0.00 | 0.00 | 0.00 | 92 | |
| 20260506131659 | 7 | 286 | 0.0 | 0.0 | 0.00 | 0.00 | 0.00 | 92 | |
| 20260506131205 | 7 | 286 | 0.0 | 0.0 | 0.00 | 0.00 | 0.00 | 92 | |
| 20260506130650 | 7 | 286 | 0.0 | 0.0 | 0.00 | 0.00 | 0.00 | 92 | |
| 20260506130155 | 7 | 286 | 0.0 | 0.0 | 0.00 | 0.00 | 0.00 | 92 | |
| 20260506125017 | 7 | 286 | 0.0 | 0.0 | 0.00 | 0.00 | 0.00 | 92 | |
| 20260506124507 | 7 | 286 | 0.0 | 0.0 | 0.00 | 0.00 | 0.00 | 92 | |
| 20260506123953 | 7 | 286 | 0.0 | 0.0 | 0.00 | 0.00 | 0.00 | 92 | |
| 20260506123436 | 7 | 286 | 0.0 | 0.0 | 0.00 | 0.00 | 0.00 | 92 | |
| 20260506122924 | 7 | 286 | 0.0 | 0.0 | 0.00 | 0.00 | 0.00 | 92 | |
| 20260506121805 | 7 | 286 | 0.0 | 1.6 | 0.00 | 0.00 | 0.00 | 91 | |
| 20260506121307 | 7 | 286 | 0.0 | 0.0 | 0.00 | 0.00 | 0.00 | 91 | |
| 20260506120754 | 7 | 286 | 0.0 | 0.0 | 0.00 | 0.00 | 0.00 | 91 | |
| 20260506120256 | 7 | 286 | 0.0 | 0.0 | 0.00 | 0.00 | 0.00 | 91 | |
| 20260506115742 | 7 | 286 | 0.0 | 0.0 | 0.00 | 0.00 | 0.00 | 91 | |
| 20260506114620 | 7 | 286 | 0.0 | 0.0 | 0.00 | 0.00 | 0.00 | 91 | |
| 20260506114118 | 7 | 286 | 0.0 | 0.0 | 0.00 | 0.00 | 0.00 | 91 | |
| 20260506113558 | 7 | 286 | 0.0 | 0.0 | 0.00 | 0.00 | 0.00 | 91 | |
| 20260506113104 | 7 | 286 | 0.0 | 0.0 | 0.00 | 0.00 | 0.00 | 90 | |
| 20260506111922 | 7 | 286 | 0.0 | 0.0 | 0.00 | 0.00 | 0.00 | 90 | |
| 20260506110804 | 8 | 286 | 0.0 | 0.0 | 0.00 | 0.00 | 0.00 | 91 | |
| 20260506110245 | 8 | 286 | 0.0 | 0.0 | 0.00 | 0.00 | 0.00 | 91 | |
| 20260506105112 | 8 | 286 | 0.0 | 0.0 | 0.00 | 0.00 | 0.00 | 91 | |
| 20260506104605 | 8 | 286 | 0.0 | 0.0 | 0.00 | 0.00 | 0.00 | 91 | |
| 20260506104113 | 8 | 286 | 0.0 | 0.0 | 0.00 | 0.00 | 0.00 | 91 | |
| 20260506103612 | 8 | 286 | 0.0 | 0.0 | 0.00 | 0.00 | 0.00 | 90 | |
| 20260506102425 | 8 | 286 | 0.0 | 0.0 | 0.00 | 0.00 | 0.00 | 90 | |
| 20260506101920 | 8 | 286 | 0.0 | 0.0 | 0.00 | 0.00 | 0.00 | 90 | |
| 20260506100736 | 8 | 286 | 0.0 | 0.0 | 0.00 | 0.00 | 0.00 | 90 | |
| 20260506095550 | 8 | 286 | 0.0 | 0.0 | 0.00 | 0.00 | 0.00 | 90 | |
| 20260506095057 | 8 | 286 | 0.0 | 0.0 | 0.00 | 0.00 | 0.00 | 90 | |
| 20260506094605 | 8 | 286 | 0.0 | 0.0 | 0.00 | 0.00 | 0.00 | 91 | |
| 20260506094101 | 9 | 286 | 0.0 | 0.0 | 0.00 | 0.00 | 0.00 | 91 | |
| 20260506093542 | 9 | 286 | 0.0 | 0.0 | 0.00 | 0.00 | 0.00 | 91 | |
| 20260506093052 | 9 | 286 | 0.0 | 0.0 | 0.00 | 0.00 | 0.00 | 91 | |
| 20260506092601 | 9 | 286 | 0.0 | 0.0 | 0.00 | 0.00 | 0.00 | 90 | |
| 20260506092102 | 9 | 286 | 0.0 | 0.0 | 0.00 | 0.00 | 0.00 | 90 | |
| 20260506091606 | 9 | 286 | 0.0 | 0.0 | 0.00 | 0.00 | 0.00 | 90 | |
| 20260506091110 | 9 | 286 | 0.0 | 1.6 | 0.00 | 0.00 | 0.00 | 90 | |
| 20260506090557 | 9 | 286 | 0.0 | 0.0 | 0.00 | 0.00 | 0.00 | 90 | |
| 20260506085553 | 9 | 286 | 0.0 | 4.8 | 0.00 | 0.00 | 0.00 | 90 | |
| 20260506085054 | 9 | 286 | 0.0 | 0.0 | 0.00 | 0.00 | 0.00 | 89 | |
| 20260506084544 | 9 | 286 | 0.0 | 0.0 | 0.00 | 0.00 | 0.00 | 89 | |
| 20260506084026 | 9 | 286 | 0.0 | 0.0 | 0.00 | 0.00 | 0.00 | 89 | |
| 20260506083522 | 9 | 286 | 0.0 | 0.0 | 0.00 | 0.00 | 0.00 | 89 | |
| 20260506082403 | 10 | 286 | 0.0 | 0.0 | 0.00 | 0.00 | 0.00 | 89 | |
| 20260506081911 | 10 | 286 | 0.0 | 0.0 | 0.00 | 0.00 | 0.00 | 89 | |
| 20260506081357 | 10 | 286 | 0.0 | 0.0 | 0.00 | 0.00 | 0.00 | 89 | |
| 20260506080839 | 10 | 286 | 0.0 | 0.0 | 0.00 | 0.00 | 0.00 | 89 | |
| 20260506080346 | 10 | 286 | 0.0 | 0.0 | 0.00 | 0.00 | 0.00 | 88 | |
| 20260506073358 | 10 | 286 | 0.0 | 0.0 | 0.00 | 0.00 | 0.00 | 88 | |
| 20260506072858 | 10 | 286 | 0.0 | 3.2 | 0.00 | 0.00 | 0.00 | 88 | |
| 20260506072405 | 10 | 286 | 0.0 | 3.2 | 0.00 | 0.00 | 0.00 | 88 | |
| 20260506071250 | 10 | 286 | 0.0 | 0.0 | 0.00 | 0.00 | 0.00 | 87 | |
| 20260506070742 | 10 | 286 | 0.0 | 0.0 | 0.00 | 0.00 | 0.00 | 87 | |
| 20260506070228 | 10 | 286 | 0.0 | 3.2 | 0.00 | 0.00 | 0.00 | 86 | |
| 20260506062030 | 11 | 286 | 0.0 | 0.0 | 0.00 | 0.00 | 0.00 | 84 | |
| 20260506060858 | 11 | 286 | 0.0 | 0.0 | 0.00 | 0.00 | 0.00 | 83 | |
| 20260506060342 | 11 | 286 | 0.0 | 0.0 | 0.00 | 0.00 | 0.00 | 83 |